Weather History for Defiance, OH

Change the Weather History Date:

Monday, December 3, 2012

  Actual Average Record
Temperature  
Mean Temperature 57 °F -  
Max Temperature 64 °F 40 °F 70 °F (1982)
Min Temperature 50 °F 24 °F -9 °F (1976)
Degree Days  
Heating Degree Days 8    
Growing Degree Days 7 (Base 50)    
Moisture  
Dew Point 56 °F    
Average Humidity 91    
Maximum Humidity 100    
Minimum Humidity 78    
Precipitation  
Precipitation 0.02 in - - ()
Sea Level Pressure  
Sea Level Pressure 30.06 in    
Wind  
Wind Speed 5 mph (South)    
Max Wind Speed 16 mph    
Max Gust Speed 23 mph    
Visibility 4 miles    
Events Fog , Rain    
Averages and records for this station are not official NWS values.
T = Trace of Precipitation, MM = Missing Value Source: NWS Daily Summary

Daily Weather History Graph

Daily Weather History Graph

Search for Another Location

Airport:

Trip Planner

Search our weather history database for the weather conditions in past years. The results will help you decide how hot, cold, wet, or windy it might be!

Date:

Astronomy

Dec. 03, 2012 Rise Set
Actual Time 7:46 AM EST 5:08 PM EST
Civil Twilight 7:15 AM EST 5:39 PM EST
Nautical Twilight 6:41 AM EST 6:13 PM EST
Astronomical Twilight 6:08 AM EST 6:47 PM EST
Moon 9:56 PM EST (12/3) 11:07 AM EST (12/3)
Length of Visible Light 10h 23m
Length of Day
9h 21m
Waning Gibbous, 78% of the Moon is Illuminated
Dec 3
Waning Gibbous
Dec 6
Last Quarter
Dec 13
New
Dec 20
First Quarter
Dec 28
Full

Hourly Weather History & Observations

Time (EST) Temp. Dew Point Humidity Pressure Visibility Wind Dir Wind Speed Gust Speed Precip Events Conditions
12:02 AM 50.0 °F 48.2 °F 94% 30.11 in 0.2 mi South 3.5 mph - N/A Fog Fog
12:45 AM 51.8 °F 50.0 °F 94% 30.11 in 0.5 mi Calm Calm - N/A Fog Fog
12:53 AM 50.0 °F 50.0 °F 100% 30.12 in 0.2 mi Calm Calm - 0.01 in Fog Fog
1:53 AM 53.1 °F 52.0 °F 96% 30.11 in 0.5 mi Calm Calm - N/A Fog Fog
2:53 AM 52.0 °F 51.1 °F 97% 30.11 in 0.2 mi Calm Calm - N/A Fog Fog
3:53 AM 54.0 °F 54.0 °F 100% 30.12 in 0.2 mi South 3.5 mph - N/A Fog Fog
4:53 AM 55.0 °F 54.0 °F 96% 30.12 in 0.5 mi Calm Calm - N/A Fog Fog
5:40 AM 55.4 °F 53.6 °F 94% 30.11 in 1.2 mi South 4.6 mph - N/A   Overcast
5:53 AM 55.0 °F 54.0 °F 96% 30.12 in 0.8 mi South 3.5 mph - N/A   Mist
6:53 AM 55.0 °F 55.0 °F 100% 30.12 in 0.8 mi South 4.6 mph - N/A   Mist
7:04 AM 55.4 °F 55.4 °F 100% 30.12 in 1.2 mi SSE 3.5 mph - N/A   Overcast
7:53 AM 55.9 °F 55.0 °F 97% 30.12 in 1.5 mi SSE 4.6 mph - N/A   Overcast
8:53 AM 55.9 °F 55.0 °F 97% 30.11 in 0.2 mi SSE 5.8 mph - 0.01 in Fog Fog
9:53 AM 57.0 °F 57.0 °F 100% 30.10 in 0.5 mi SSE 5.8 mph - N/A Fog Fog
10:24 AM 57.2 °F 57.2 °F 100% 30.09 in 1.2 mi South 6.9 mph - N/A   Overcast
10:40 AM 57.2 °F 57.2 °F 100% 30.09 in 2.0 mi South 6.9 mph - N/A   Overcast
10:53 AM 57.9 °F 57.0 °F 97% 30.09 in 2.0 mi South 9.2 mph - N/A   Overcast
11:08 AM 59.0 °F 57.2 °F 94% 30.08 in 1.8 mi SSE 5.8 mph - N/A   Overcast
11:38 AM 60.8 °F 57.2 °F 88% 30.07 in 2.0 mi South 8.1 mph - 0.00 in   Overcast
11:53 AM 60.1 °F 59.0 °F 96% 30.06 in 2.5 mi South 8.1 mph - 0.00 in   Overcast
12:09 PM 60.8 °F 59.0 °F 94% 30.05 in 3.0 mi South 8.1 mph - 0.00 in Rain Light Rain
12:17 PM 60.8 °F 59.0 °F 94% 30.05 in 2.5 mi South 9.2 mph - 0.00 in Rain Light Rain
12:27 PM 60.8 °F 59.0 °F 94% 30.04 in 4.0 mi South 10.4 mph - 0.00 in   Overcast
12:53 PM 62.1 °F 60.1 °F 93% 30.04 in 4.0 mi South 10.4 mph - 0.00 in   Overcast
1:19 PM 62.6 °F 60.8 °F 94% 30.03 in 4.0 mi South 10.4 mph - N/A   Overcast
1:39 PM 62.6 °F 59.0 °F 88% 30.02 in 5.0 mi South 8.1 mph - N/A   Overcast
1:53 PM 64.0 °F 60.1 °F 87% 30.01 in 5.0 mi South 6.9 mph - N/A   Overcast
2:53 PM 64.0 °F 59.0 °F 84% 30.00 in 7.0 mi South 10.4 mph 17.3 mph N/A   Overcast
3:53 PM 64.0 °F 59.0 °F 84% 30.00 in 9.0 mi South 11.5 mph - N/A   Overcast
4:17 PM 64.4 °F 59.0 °F 83% 30.00 in 9.0 mi South 11.5 mph - N/A   Overcast
4:53 PM 64.0 °F 57.9 °F 80% 29.99 in 10.0 mi South 10.4 mph - N/A   Mostly Cloudy
5:53 PM 63.0 °F 57.9 °F 84% 29.99 in 10.0 mi South 10.4 mph - N/A   Partly Cloudy
6:53 PM 63.0 °F 57.9 °F 84% 29.99 in 10.0 mi South 11.5 mph - N/A   Clear
7:53 PM 63.0 °F 57.0 °F 81% 29.98 in 10.0 mi South 12.7 mph 21.9 mph N/A   Clear
8:53 PM 62.1 °F 55.9 °F 80% 29.98 in 10.0 mi South 15.0 mph 20.7 mph N/A   Clear
9:53 PM 62.1 °F 55.0 °F 78% 29.96 in 10.0 mi South 16.1 mph 23.0 mph N/A   Clear
10:53 PM 61.0 °F 54.0 °F 78% 29.97 in 10.0 mi SSW 12.7 mph - N/A   Scattered Clouds
11:53 PM 60.1 °F 54.0 °F 80% 29.97 in 10.0 mi South 11.5 mph - N/A   Scattered Clouds